owner,sensor,date,latitude,longitude,air_pressure(mBar),qcFlag 
WAVCIS,ioos:station:WAVCIS:CSI03:1,2010-01-01T00:00:00Z,29.4412,-92.0613,1016.46,11111222 
WAVCIS,ioos:station:WAVCIS:CSI03:1,2010-01-01T01:00:00Z,29.4412,-92.0613,1016.42,11111222 
WAVCIS,ioos:station:WAVCIS:CSI03:1,2010-01-01T02:00:00Z,29.4412,-92.0613,1016.91,11111222 
WAVCIS,ioos:station:WAVCIS:CSI03:1,2010-01-01T03:00:00Z,29.4412,-92.0613,1018.19,11111222 
WAVCIS,ioos:station:WAVCIS:CSI03:1,2010-01-01T04:00:00Z,29.4412,-92.0613,1018.15,11111222 
WAVCIS,ioos:station:WAVCIS:CSI03:1,2010-01-01T05:00:00Z,29.4412,-92.0613,1018.36,11111222 
WAVCIS,ioos:station:WAVCIS:CSI03:1,2010-01-01T06:00:00Z,29.4412,-92.0613,1019.14,11111222 
WAVCIS,ioos:station:WAVCIS:CSI03:1,2010-01-01T07:00:00Z,29.4412,-92.0613,1018.84,11111222 
WAVCIS,ioos:station:WAVCIS:CSI03:1,2010-01-01T16:00:00Z,29.4412,-92.0613,1026.03,11111222 
WAVCIS,ioos:station:WAVCIS:CSI03:1,2010-01-01T17:00:00Z,29.4412,-92.0613,1026.03,11111222 
WAVCIS,ioos:station:WAVCIS:CSI03:1,2010-01-01T18:00:00Z,29.4412,-92.0613,1025.64,11111222 
WAVCIS,ioos:station:WAVCIS:CSI03:1,2010-01-01T19:00:00Z,29.4412,-92.0613,1024.95,11111222 
WAVCIS,ioos:station:WAVCIS:CSI03:1,2010-01-01T20:00:00Z,29.4412,-92.0613,1024.54,11111222 
WAVCIS,ioos:station:WAVCIS:CSI03:1,2010-01-01T21:00:00Z,29.4412,-92.0613,1023.99,11111222 
WAVCIS,ioos:station:WAVCIS:CSI03:1,2010-01-01T22:00:00Z,29.4412,-92.0613,1024.3,11111222 
WAVCIS,ioos:station:WAVCIS:CSI03:1,2010-01-01T23:00:00Z,29.4412,-92.0613,1024.29,11111222 
WAVCIS,ioos:station:WAVCIS:CSI03:1,2010-01-02T00:00:00Z,29.4412,-92.0613,1024.62,11111222 
WAVCIS,ioos:station:WAVCIS:CSI03:1,2010-01-02T01:00:00Z,29.4412,-92.0613,1025.32,11111222 
WAVCIS,ioos:station:WAVCIS:CSI03:1,2010-01-02T02:00:00Z,29.4412,-92.0613,1025.58,11111222 
WAVCIS,ioos:station:WAVCIS:CSI03:1,2010-01-02T03:00:00Z,29.4412,-92.0613,1026.02,11111222 
WAVCIS,ioos:station:WAVCIS:CSI03:1,2010-01-02T04:00:00Z,29.4412,-92.0613,1026.16,11111222 
WAVCIS,ioos:station:WAVCIS:CSI03:1,2010-01-02T05:00:00Z,29.4412,-92.0613,1026.14,11111222 
WAVCIS,ioos:station:WAVCIS:CSI03:1,2010-01-02T06:00:00Z,29.4412,-92.0613,1025.9,11111222 
WAVCIS,ioos:station:WAVCIS:CSI03:1,2010-01-02T07:00:00Z,29.4412,-92.0613,1025.69,11111222 
WAVCIS,ioos:station:WAVCIS:CSI03:1,2010-01-02T08:00:00Z,29.4412,-92.0613,1025.56,11111222 
WAVCIS,ioos:station:WAVCIS:CSI03:1,2010-01-02T09:00:00Z,29.4412,-92.0613,1025.31,11111222 
WAVCIS,ioos:station:WAVCIS:CSI03:1,2010-01-02T10:00:00Z,29.4412,-92.0613,1025.14,11111222 
WAVCIS,ioos:station:WAVCIS:CSI03:1,2010-01-02T11:00:00Z,29.4412,-92.0613,1024.89,11111222 
WAVCIS,ioos:station:WAVCIS:CSI03:1,2010-01-02T12:00:00Z,29.4412,-92.0613,1025.19,11111222 
WAVCIS,ioos:station:WAVCIS:CSI03:1,2010-01-02T13:00:00Z,29.4412,-92.0613,1025.87,11111222 
WAVCIS,ioos:station:WAVCIS:CSI03:1,2010-01-02T14:00:00Z,29.4412,-92.0613,1027.4,11111222 
WAVCIS,ioos:station:WAVCIS:CSI03:1,2010-01-02T15:00:00Z,29.4412,-92.0613,1026.79,11111222 
WAVCIS,ioos:station:WAVCIS:CSI03:1,2010-01-02T16:00:00Z,29.4412,-92.0613,1027.27,11111222 
WAVCIS,ioos:station:WAVCIS:CSI03:1,2010-01-02T17:00:00Z,29.4412,-92.0613,1027.02,11111222 
WAVCIS,ioos:station:WAVCIS:CSI03:1,2010-01-02T18:00:00Z,29.4412,-92.0613,1026.11,11111222 
WAVCIS,ioos:station:WAVCIS:CSI03:1,2010-01-02T19:00:00Z,29.4412,-92.0613,1025.0,11111222 
WAVCIS,ioos:station:WAVCIS:CSI03:1,2010-01-02T20:00:00Z,29.4412,-92.0613,1023.65,11111222 
WAVCIS,ioos:station:WAVCIS:CSI03:1,2010-01-02T21:00:00Z,29.4412,-92.0613,1023.63,11111222 
WAVCIS,ioos:station:WAVCIS:CSI03:1,2010-01-02T22:00:00Z,29.4412,-92.0613,1023.47,11111222 
WAVCIS,ioos:station:WAVCIS:CSI03:1,2010-01-02T23:00:00Z,29.4412,-92.0613,1023.08,11111222 
WAVCIS,ioos:station:WAVCIS:CSI03:1,2010-01-03T00:00:00Z,29.4412,-92.0613,1022.92,11111222 
WAVCIS,ioos:station:WAVCIS:CSI03:1,2010-01-03T01:00:00Z,29.4412,-92.0613,1023.37,11111222 
WAVCIS,ioos:station:WAVCIS:CSI03:1,2010-01-03T02:00:00Z,29.4412,-92.0613,1023.52,11111222 
WAVCIS,ioos:station:WAVCIS:CSI03:1,2010-01-03T03:00:00Z,29.4412,-92.0613,1023.24,11111222 
WAVCIS,ioos:station:WAVCIS:CSI03:1,2010-01-03T04:00:00Z,29.4412,-92.0613,1023.26,11111222 
WAVCIS,ioos:station:WAVCIS:CSI03:1,2010-01-03T05:00:00Z,29.4412,-92.0613,1023.08,11111222 
WAVCIS,ioos:station:WAVCIS:CSI03:1,2010-01-03T06:00:00Z,29.4412,-92.0613,1022.87,11111222 
WAVCIS,ioos:station:WAVCIS:CSI03:1,2010-01-03T07:00:00Z,29.4412,-92.0613,1022.16,11111222 
WAVCIS,ioos:station:WAVCIS:CSI03:1,2010-01-03T08:00:00Z,29.4412,-92.0613,1022.27,11111222 
WAVCIS,ioos:station:WAVCIS:CSI03:1,2010-01-03T09:00:00Z,29.4412,-92.0613,1022.19,11111222 
WAVCIS,ioos:station:WAVCIS:CSI03:1,2010-01-03T10:00:00Z,29.4412,-92.0613,1021.66,11111222 
WAVCIS,ioos:station:WAVCIS:CSI03:1,2010-01-03T11:00:00Z,29.4412,-92.0613,1021.57,11111222 
WAVCIS,ioos:station:WAVCIS:CSI03:1,2010-01-03T12:00:00Z,29.4412,-92.0613,1021.68,11111222 
WAVCIS,ioos:station:WAVCIS:CSI03:1,2010-01-03T13:00:00Z,29.4412,-92.0613,1022.11,11111222 
WAVCIS,ioos:station:WAVCIS:CSI03:1,2010-01-03T14:00:00Z,29.4412,-92.0613,1022.41,11111222 
WAVCIS,ioos:station:WAVCIS:CSI03:1,2010-01-03T15:00:00Z,29.4412,-92.0613,1022.98,11111222 
WAVCIS,ioos:station:WAVCIS:CSI03:1,2010-01-03T16:00:00Z,29.4412,-92.0613,1023.29,11111222 
WAVCIS,ioos:station:WAVCIS:CSI03:1,2010-01-03T17:00:00Z,29.4412,-92.0613,1022.77,11111222 
WAVCIS,ioos:station:WAVCIS:CSI03:1,2010-01-03T18:00:00Z,29.4412,-92.0613,1022.1,11111222 
WAVCIS,ioos:station:WAVCIS:CSI03:1,2010-01-03T19:00:00Z,29.4412,-92.0613,1021.0,11111222 
WAVCIS,ioos:station:WAVCIS:CSI03:1,2010-01-03T20:00:00Z,29.4412,-92.0613,1020.61,11111222 
WAVCIS,ioos:station:WAVCIS:CSI03:1,2010-01-03T21:00:00Z,29.4412,-92.0613,1020.93,11111222 
WAVCIS,ioos:station:WAVCIS:CSI03:1,2010-01-03T22:00:00Z,29.4412,-92.0613,1021.16,11111222 
WAVCIS,ioos:station:WAVCIS:CSI03:1,2010-01-03T23:00:00Z,29.4412,-92.0613,1021.25,11111222 
WAVCIS,ioos:station:WAVCIS:CSI03:1,2010-01-04T00:00:00Z,29.4412,-92.0613,1021.77,11111222 
WAVCIS,ioos:station:WAVCIS:CSI03:1,2010-01-04T01:00:00Z,29.4412,-92.0613,1021.97,11111222 
WAVCIS,ioos:station:WAVCIS:CSI03:1,2010-01-04T02:00:00Z,29.4412,-92.0613,1022.3,11111222 
WAVCIS,ioos:station:WAVCIS:CSI03:1,2010-01-04T03:00:00Z,29.4412,-92.0613,1022.49,11111222 
WAVCIS,ioos:station:WAVCIS:CSI03:1,2010-01-04T04:00:00Z,29.4412,-92.0613,1022.5,11111222 
WAVCIS,ioos:station:WAVCIS:CSI03:1,2010-01-04T05:00:00Z,29.4412,-92.0613,1022.59,11111222 
WAVCIS,ioos:station:WAVCIS:CSI03:1,2010-01-04T06:00:00Z,29.4412,-92.0613,1022.78,11111222 
WAVCIS,ioos:station:WAVCIS:CSI03:1,2010-01-04T07:00:00Z,29.4412,-92.0613,1023.19,11111222 
WAVCIS,ioos:station:WAVCIS:CSI03:1,2010-01-04T08:00:00Z,29.4412,-92.0613,1023.03,11111222 
WAVCIS,ioos:station:WAVCIS:CSI03:1,2010-01-04T09:00:00Z,29.4412,-92.0613,1023.08,11111222 
WAVCIS,ioos:station:WAVCIS:CSI03:1,2010-01-04T10:00:00Z,29.4412,-92.0613,1023.27,11111222 
WAVCIS,ioos:station:WAVCIS:CSI03:1,2010-01-04T11:00:00Z,29.4412,-92.0613,1023.42,11111222 
WAVCIS,ioos:station:WAVCIS:CSI03:1,2010-01-04T12:00:00Z,29.4412,-92.0613,1023.96,11111222 
WAVCIS,ioos:station:WAVCIS:CSI03:1,2010-01-04T13:00:00Z,29.4412,-92.0613,1024.09,11111222 
WAVCIS,ioos:station:WAVCIS:CSI03:1,2010-01-04T14:00:00Z,29.4412,-92.0613,1024.58,11111222 
WAVCIS,ioos:station:WAVCIS:CSI03:1,2010-01-04T15:00:00Z,29.4412,-92.0613,1025.38,11111222 
WAVCIS,ioos:station:WAVCIS:CSI03:1,2010-01-04T16:00:00Z,29.4412,-92.0613,1026.01,11111222 
WAVCIS,ioos:station:WAVCIS:CSI03:1,2010-01-04T17:00:00Z,29.4412,-92.0613,1025.96,11111222 
WAVCIS,ioos:station:WAVCIS:CSI03:1,2010-01-04T18:00:00Z,29.4412,-92.0613,1025.19,11111222 
WAVCIS,ioos:station:WAVCIS:CSI03:1,2010-01-04T19:00:00Z,29.4412,-92.0613,1024.76,11111222 
WAVCIS,ioos:station:WAVCIS:CSI03:1,2010-01-04T20:00:00Z,29.4412,-92.0613,1024.44,11111222 
WAVCIS,ioos:station:WAVCIS:CSI03:1,2010-01-04T21:00:00Z,29.4412,-92.0613,1024.99,11111222 
WAVCIS,ioos:station:WAVCIS:CSI03:1,2010-01-04T22:00:00Z,29.4412,-92.0613,1025.13,11111222 
WAVCIS,ioos:station:WAVCIS:CSI03:1,2010-01-04T23:00:00Z,29.4412,-92.0613,1025.77,11111222 
WAVCIS,ioos:station:WAVCIS:CSI03:1,2010-01-05T00:00:00Z,29.4412,-92.0613,1026.3,11111222 
WAVCIS,ioos:station:WAVCIS:CSI03:1,2010-01-05T01:00:00Z,29.4412,-92.0613,1026.63,11111222 
WAVCIS,ioos:station:WAVCIS:CSI03:1,2010-01-05T02:00:00Z,29.4412,-92.0613,1027.19,11111222 
WAVCIS,ioos:station:WAVCIS:CSI03:1,2010-01-05T03:00:00Z,29.4412,-92.0613,1027.73,11111222 
WAVCIS,ioos:station:WAVCIS:CSI03:1,2010-01-05T04:00:00Z,29.4412,-92.0613,1028.0,11111222 
WAVCIS,ioos:station:WAVCIS:CSI03:1,2010-01-05T05:00:00Z,29.4412,-92.0613,1028.0,11111222 
WAVCIS,ioos:station:WAVCIS:CSI03:1,2010-01-05T06:00:00Z,29.4412,-92.0613,1028.12,11111222 
WAVCIS,ioos:station:WAVCIS:CSI03:1,2010-01-05T07:00:00Z,29.4412,-92.0613,1027.8,11111222 
WAVCIS,ioos:station:WAVCIS:CSI03:1,2010-01-05T08:00:00Z,29.4412,-92.0613,1028.43,11111222 
WAVCIS,ioos:station:WAVCIS:CSI03:1,2010-01-05T09:00:00Z,29.4412,-92.0613,1028.45,11111222 
WAVCIS,ioos:station:WAVCIS:CSI03:1,2010-01-05T10:00:00Z,29.4412,-92.0613,1028.28,11111222 
WAVCIS,ioos:station:WAVCIS:CSI03:1,2010-01-05T11:00:00Z,29.4412,-92.0613,1027.87,11111222 
WAVCIS,ioos:station:WAVCIS:CSI03:1,2010-01-05T12:00:00Z,29.4412,-92.0613,1028.17,11111222 
WAVCIS,ioos:station:WAVCIS:CSI03:1,2010-01-05T13:00:00Z,29.4412,-92.0613,1028.92,11111222 
WAVCIS,ioos:station:WAVCIS:CSI03:1,2010-01-05T14:00:00Z,29.4412,-92.0613,1029.34,11111222 
WAVCIS,ioos:station:WAVCIS:CSI03:1,2010-01-05T15:00:00Z,29.4412,-92.0613,1029.66,11111222 
WAVCIS,ioos:station:WAVCIS:CSI03:1,2010-01-05T16:00:00Z,29.4412,-92.0613,1030.15,11111222 
WAVCIS,ioos:station:WAVCIS:CSI03:1,2010-01-05T17:00:00Z,29.4412,-92.0613,1029.94,11111222 
WAVCIS,ioos:station:WAVCIS:CSI03:1,2010-01-05T18:00:00Z,29.4412,-92.0613,1029.01,11111222 
WAVCIS,ioos:station:WAVCIS:CSI03:1,2010-01-05T19:00:00Z,29.4412,-92.0613,1028.01,11111222 
WAVCIS,ioos:station:WAVCIS:CSI03:1,2010-01-05T20:00:00Z,29.4412,-92.0613,1027.13,11111222 
WAVCIS,ioos:station:WAVCIS:CSI03:1,2010-01-05T21:00:00Z,29.4412,-92.0613,1026.45,11111222 
WAVCIS,ioos:station:WAVCIS:CSI03:1,2010-01-05T22:00:00Z,29.4412,-92.0613,1026.14,11111222 
WAVCIS,ioos:station:WAVCIS:CSI03:1,2010-01-05T23:00:00Z,29.4412,-92.0613,1026.21,11111222 
WAVCIS,ioos:station:WAVCIS:CSI03:1,2010-01-06T00:00:00Z,29.4412,-92.0613,1026.31,11111222 
WAVCIS,ioos:station:WAVCIS:CSI03:1,2010-01-06T01:00:00Z,29.4412,-92.0613,1026.35,11111222 
WAVCIS,ioos:station:WAVCIS:CSI03:1,2010-01-06T02:00:00Z,29.4412,-92.0613,1026.4,11111222 
WAVCIS,ioos:station:WAVCIS:CSI03:1,2010-01-06T03:00:00Z,29.4412,-92.0613,1026.58,11111222 
WAVCIS,ioos:station:WAVCIS:CSI03:1,2010-01-06T04:00:00Z,29.4412,-92.0613,1026.17,11111222 
WAVCIS,ioos:station:WAVCIS:CSI03:1,2010-01-06T05:00:00Z,29.4412,-92.0613,1026.12,11111222 
WAVCIS,ioos:station:WAVCIS:CSI03:1,2010-01-06T06:00:00Z,29.4412,-92.0613,1025.89,11111222 
WAVCIS,ioos:station:WAVCIS:CSI03:1,2010-01-06T07:00:00Z,29.4412,-92.0613,1025.45,11111222 
WAVCIS,ioos:station:WAVCIS:CSI03:1,2010-01-06T08:00:00Z,29.4412,-92.0613,1025.2,11111222 
WAVCIS,ioos:station:WAVCIS:CSI03:1,2010-01-06T09:00:00Z,29.4412,-92.0613,1025.01,11111222 
WAVCIS,ioos:station:WAVCIS:CSI03:1,2010-01-06T10:00:00Z,29.4412,-92.0613,1024.59,11111222 
WAVCIS,ioos:station:WAVCIS:CSI03:1,2010-01-06T11:00:00Z,29.4412,-92.0613,1024.78,11111222 
WAVCIS,ioos:station:WAVCIS:CSI03:1,2010-01-06T12:00:00Z,29.4412,-92.0613,1024.73,11111222 
WAVCIS,ioos:station:WAVCIS:CSI03:1,2010-01-06T13:00:00Z,29.4412,-92.0613,1025.21,11111222 
WAVCIS,ioos:station:WAVCIS:CSI03:1,2010-01-06T14:00:00Z,29.4412,-92.0613,1025.73,11111222 
WAVCIS,ioos:station:WAVCIS:CSI03:1,2010-01-06T15:00:00Z,29.4412,-92.0613,1025.7,11111222 
WAVCIS,ioos:station:WAVCIS:CSI03:1,2010-01-06T16:00:00Z,29.4412,-92.0613,1025.62,11111222 
WAVCIS,ioos:station:WAVCIS:CSI03:1,2010-01-06T17:00:00Z,29.4412,-92.0613,1025.17,11111222 
WAVCIS,ioos:station:WAVCIS:CSI03:1,2010-01-06T18:00:00Z,29.4412,-92.0613,1024.15,11111222 
WAVCIS,ioos:station:WAVCIS:CSI03:1,2010-01-06T19:00:00Z,29.4412,-92.0613,1022.68,11111222 
WAVCIS,ioos:station:WAVCIS:CSI03:1,2010-01-06T20:00:00Z,29.4412,-92.0613,1021.46,11111222 
WAVCIS,ioos:station:WAVCIS:CSI03:1,2010-01-06T21:00:00Z,29.4412,-92.0613,1020.45,11111222 
WAVCIS,ioos:station:WAVCIS:CSI03:1,2010-01-06T22:00:00Z,29.4412,-92.0613,1020.56,11111222 
WAVCIS,ioos:station:WAVCIS:CSI03:1,2010-01-06T23:00:00Z,29.4412,-92.0613,1020.71,11111222 
WAVCIS,ioos:station:WAVCIS:CSI03:1,2010-01-07T00:00:00Z,29.4412,-92.0613,1019.96,11111222 
WAVCIS,ioos:station:WAVCIS:CSI03:1,2010-01-07T01:00:00Z,29.4412,-92.0613,1019.88,11111222 
WAVCIS,ioos:station:WAVCIS:CSI03:1,2010-01-07T02:00:00Z,29.4412,-92.0613,1019.7,11111222 
WAVCIS,ioos:station:WAVCIS:CSI03:1,2010-01-07T03:00:00Z,29.4412,-92.0613,1019.64,11111222 
WAVCIS,ioos:station:WAVCIS:CSI03:1,2010-01-07T04:00:00Z,29.4412,-92.0613,1019.16,11111222 
WAVCIS,ioos:station:WAVCIS:CSI03:1,2010-01-07T05:00:00Z,29.4412,-92.0613,1018.5,11111222 
WAVCIS,ioos:station:WAVCIS:CSI03:1,2010-01-07T06:00:00Z,29.4412,-92.0613,1018.16,11111222 
WAVCIS,ioos:station:WAVCIS:CSI03:1,2010-01-07T07:00:00Z,29.4412,-92.0613,1018.28,11111222 
WAVCIS,ioos:station:WAVCIS:CSI03:1,2010-01-07T08:00:00Z,29.4412,-92.0613,1017.66,11111222 
WAVCIS,ioos:station:WAVCIS:CSI03:1,2010-01-07T09:00:00Z,29.4412,-92.0613,1017.54,11111222 
WAVCIS,ioos:station:WAVCIS:CSI03:1,2010-01-07T10:00:00Z,29.4412,-92.0613,1016.72,11111222 
WAVCIS,ioos:station:WAVCIS:CSI03:1,2010-01-07T11:00:00Z,29.4412,-92.0613,1016.31,11111222 
WAVCIS,ioos:station:WAVCIS:CSI03:1,2010-01-07T12:00:00Z,29.4412,-92.0613,1016.24,11111222 
WAVCIS,ioos:station:WAVCIS:CSI03:1,2010-01-07T13:00:00Z,29.4412,-92.0613,1015.63,11111222 
WAVCIS,ioos:station:WAVCIS:CSI03:1,2010-01-07T14:00:00Z,29.4412,-92.0613,1016.1,11111222 
WAVCIS,ioos:station:WAVCIS:CSI03:1,2010-01-07T15:00:00Z,29.4412,-92.0613,1016.08,11111222 
WAVCIS,ioos:station:WAVCIS:CSI03:1,2010-01-07T16:00:00Z,29.4412,-92.0613,1016.27,11111222 
WAVCIS,ioos:station:WAVCIS:CSI03:1,2010-01-07T17:00:00Z,29.4412,-92.0613,1016.04,11111222 
WAVCIS,ioos:station:WAVCIS:CSI03:1,2010-01-07T18:00:00Z,29.4412,-92.0613,1016.11,11111222 
WAVCIS,ioos:station:WAVCIS:CSI03:1,2010-01-07T19:00:00Z,29.4412,-92.0613,1016.22,11111222 
WAVCIS,ioos:station:WAVCIS:CSI03:1,2010-01-07T20:00:00Z,29.4412,-92.0613,1016.39,11111222 
WAVCIS,ioos:station:WAVCIS:CSI03:1,2010-01-07T21:00:00Z,29.4412,-92.0613,1017.15,11111222 
WAVCIS,ioos:station:WAVCIS:CSI03:1,2010-01-07T22:00:00Z,29.4412,-92.0613,1017.82,11111222 
WAVCIS,ioos:station:WAVCIS:CSI03:1,2010-01-07T23:00:00Z,29.4412,-92.0613,1018.48,11111222 
WAVCIS,ioos:station:WAVCIS:CSI03:1,2010-01-08T00:00:00Z,29.4412,-92.0613,1019.45,11111222 
WAVCIS,ioos:station:WAVCIS:CSI03:1,2010-01-08T01:00:00Z,29.4412,-92.0613,1020.65,11111222 
WAVCIS,ioos:station:WAVCIS:CSI03:1,2010-01-08T02:00:00Z,29.4412,-92.0613,1021.28,11111222 
WAVCIS,ioos:station:WAVCIS:CSI03:1,2010-01-08T03:00:00Z,29.4412,-92.0613,1021.58,11111222 
WAVCIS,ioos:station:WAVCIS:CSI03:1,2010-01-08T04:00:00Z,29.4412,-92.0613,1022.38,11111222 
WAVCIS,ioos:station:WAVCIS:CSI03:1,2010-01-08T05:00:00Z,29.4412,-92.0613,1023.32,11111222 
WAVCIS,ioos:station:WAVCIS:CSI03:1,2010-01-08T06:00:00Z,29.4412,-92.0613,1023.58,11111222 
WAVCIS,ioos:station:WAVCIS:CSI03:1,2010-01-08T07:00:00Z,29.4412,-92.0613,1023.45,11111222 
WAVCIS,ioos:station:WAVCIS:CSI03:1,2010-01-08T08:00:00Z,29.4412,-92.0613,1023.49,11111222 
WAVCIS,ioos:station:WAVCIS:CSI03:1,2010-01-08T09:00:00Z,29.4412,-92.0613,1023.75,11111222 
WAVCIS,ioos:station:WAVCIS:CSI03:1,2010-01-08T10:00:00Z,29.4412,-92.0613,1024.46,11111222 
WAVCIS,ioos:station:WAVCIS:CSI03:1,2010-01-08T11:00:00Z,29.4412,-92.0613,1024.66,11111222 
WAVCIS,ioos:station:WAVCIS:CSI03:1,2010-01-08T12:00:00Z,29.4412,-92.0613,1025.26,11111222 
WAVCIS,ioos:station:WAVCIS:CSI03:1,2010-01-08T13:00:00Z,29.4412,-92.0613,1026.33,11111222 
WAVCIS,ioos:station:WAVCIS:CSI03:1,2010-01-08T14:00:00Z,29.4412,-92.0613,1027.18,11111222 
WAVCIS,ioos:station:WAVCIS:CSI03:1,2010-01-08T15:00:00Z,29.4412,-92.0613,1028.24,11111222 
WAVCIS,ioos:station:WAVCIS:CSI03:1,2010-01-08T16:00:00Z,29.4412,-92.0613,1028.68,11111222 
WAVCIS,ioos:station:WAVCIS:CSI03:1,2010-01-08T17:00:00Z,29.4412,-92.0613,1028.52,11111222 
WAVCIS,ioos:station:WAVCIS:CSI03:1,2010-01-08T18:00:00Z,29.4412,-92.0613,1028.02,11111222 
WAVCIS,ioos:station:WAVCIS:CSI03:1,2010-01-08T19:00:00Z,29.4412,-92.0613,1027.37,11111222 
WAVCIS,ioos:station:WAVCIS:CSI03:1,2010-01-08T20:00:00Z,29.4412,-92.0613,1026.46,11111222 
WAVCIS,ioos:station:WAVCIS:CSI03:1,2010-01-08T21:00:00Z,29.4412,-92.0613,1026.28,11111222 
WAVCIS,ioos:station:WAVCIS:CSI03:1,2010-01-08T22:00:00Z,29.4412,-92.0613,1026.16,11111222 
WAVCIS,ioos:station:WAVCIS:CSI03:1,2010-01-08T23:00:00Z,29.4412,-92.0613,1027.1,11111222 
WAVCIS,ioos:station:WAVCIS:CSI03:1,2010-01-09T00:00:00Z,29.4412,-92.0613,1027.09,11111222 
WAVCIS,ioos:station:WAVCIS:CSI03:1,2010-01-09T01:00:00Z,29.4412,-92.0613,1027.64,11111222 
WAVCIS,ioos:station:WAVCIS:CSI03:1,2010-01-09T02:00:00Z,29.4412,-92.0613,1028.5,11111222 
WAVCIS,ioos:station:WAVCIS:CSI03:1,2010-01-09T03:00:00Z,29.4412,-92.0613,1029.24,11111222 
WAVCIS,ioos:station:WAVCIS:CSI03:1,2010-01-09T04:00:00Z,29.4412,-92.0613,1029.57,11111222 
WAVCIS,ioos:station:WAVCIS:CSI03:1,2010-01-09T05:00:00Z,29.4412,-92.0613,1029.29,11111222 
WAVCIS,ioos:station:WAVCIS:CSI03:1,2010-01-09T06:00:00Z,29.4412,-92.0613,1029.31,11111222 
WAVCIS,ioos:station:WAVCIS:CSI03:1,2010-01-09T07:00:00Z,29.4412,-92.0613,1029.07,11111222 
WAVCIS,ioos:station:WAVCIS:CSI03:1,2010-01-09T08:00:00Z,29.4412,-92.0613,1028.87,11111222 
WAVCIS,ioos:station:WAVCIS:CSI03:1,2010-01-09T09:00:00Z,29.4412,-92.0613,1028.54,11111222 
WAVCIS,ioos:station:WAVCIS:CSI03:1,2010-01-09T10:00:00Z,29.4412,-92.0613,1028.52,11111222 
WAVCIS,ioos:station:WAVCIS:CSI03:1,2010-01-09T11:00:00Z,29.4412,-92.0613,1028.76,11111222 
WAVCIS,ioos:station:WAVCIS:CSI03:1,2010-01-09T12:00:00Z,29.4412,-92.0613,1029.6,11111222 
WAVCIS,ioos:station:WAVCIS:CSI03:1,2010-01-09T13:00:00Z,29.4412,-92.0613,1030.25,11111222 
WAVCIS,ioos:station:WAVCIS:CSI03:1,2010-01-09T14:00:00Z,29.4412,-92.0613,1031.16,11111222 
WAVCIS,ioos:station:WAVCIS:CSI03:1,2010-01-09T15:00:00Z,29.4412,-92.0613,1030.79,11111222 
WAVCIS,ioos:station:WAVCIS:CSI03:1,2010-01-09T16:00:00Z,29.4412,-92.0613,1031.4,11111222 
WAVCIS,ioos:station:WAVCIS:CSI03:1,2010-01-09T17:00:00Z,29.4412,-92.0613,1031.42,11111222 
WAVCIS,ioos:station:WAVCIS:CSI03:1,2010-01-09T18:00:00Z,29.4412,-92.0613,1030.9,11111222 
WAVCIS,ioos:station:WAVCIS:CSI03:1,2010-01-09T19:00:00Z,29.4412,-92.0613,1029.67,11111222 
WAVCIS,ioos:station:WAVCIS:CSI03:1,2010-01-09T20:00:00Z,29.4412,-92.0613,1029.17,11111222 
WAVCIS,ioos:station:WAVCIS:CSI03:1,2010-01-09T21:00:00Z,29.4412,-92.0613,1028.71,11111222 
WAVCIS,ioos:station:WAVCIS:CSI03:1,2010-01-09T22:00:00Z,29.4412,-92.0613,1029.01,11111222 
WAVCIS,ioos:station:WAVCIS:CSI03:1,2010-01-09T23:00:00Z,29.4412,-92.0613,1028.99,11111222 
WAVCIS,ioos:station:WAVCIS:CSI03:1,2010-01-10T00:00:00Z,29.4412,-92.0613,1029.65,11111222 
WAVCIS,ioos:station:WAVCIS:CSI03:1,2010-01-10T01:00:00Z,29.4412,-92.0613,1030.48,11111222 
WAVCIS,ioos:station:WAVCIS:CSI03:1,2010-01-10T02:00:00Z,29.4412,-92.0613,1031.29,11111222 
WAVCIS,ioos:station:WAVCIS:CSI03:1,2010-01-10T03:00:00Z,29.4412,-92.0613,1031.9,11111222 
WAVCIS,ioos:station:WAVCIS:CSI03:1,2010-01-10T04:00:00Z,29.4412,-92.0613,1032.56,11111222 
WAVCIS,ioos:station:WAVCIS:CSI03:1,2010-01-10T05:00:00Z,29.4412,-92.0613,1032.69,11111222 
WAVCIS,ioos:station:WAVCIS:CSI03:1,2010-01-10T06:00:00Z,29.4412,-92.0613,1032.84,11111222 
WAVCIS,ioos:station:WAVCIS:CSI03:1,2010-01-10T07:00:00Z,29.4412,-92.0613,1032.98,11111222 
WAVCIS,ioos:station:WAVCIS:CSI03:1,2010-01-10T08:00:00Z,29.4412,-92.0613,1033.06,11111222 
WAVCIS,ioos:station:WAVCIS:CSI03:1,2010-01-10T09:00:00Z,29.4412,-92.0613,1033.17,11111222 
WAVCIS,ioos:station:WAVCIS:CSI03:1,2010-01-10T10:00:00Z,29.4412,-92.0613,1033.11,11111222 
WAVCIS,ioos:station:WAVCIS:CSI03:1,2010-01-10T11:00:00Z,29.4412,-92.0613,1033.34,11111222 
WAVCIS,ioos:station:WAVCIS:CSI03:1,2010-01-10T12:00:00Z,29.4412,-92.0613,1033.77,11111222 
WAVCIS,ioos:station:WAVCIS:CSI03:1,2010-01-10T13:00:00Z,29.4412,-92.0613,1034.56,11111222 
WAVCIS,ioos:station:WAVCIS:CSI03:1,2010-01-10T14:00:00Z,29.4412,-92.0613,1035.49,11111222 
WAVCIS,ioos:station:WAVCIS:CSI03:1,2010-01-10T15:00:00Z,29.4412,-92.0613,1036.05,11111222 
WAVCIS,ioos:station:WAVCIS:CSI03:1,2010-01-10T16:00:00Z,29.4412,-92.0613,1036.56,11111222 
WAVCIS,ioos:station:WAVCIS:CSI03:1,2010-01-10T17:00:00Z,29.4412,-92.0613,1036.36,11111222 
WAVCIS,ioos:station:WAVCIS:CSI03:1,2010-01-10T18:00:00Z,29.4412,-92.0613,1036.03,11111222 
WAVCIS,ioos:station:WAVCIS:CSI03:1,2010-01-10T19:00:00Z,29.4412,-92.0613,1035.19,11111222 
WAVCIS,ioos:station:WAVCIS:CSI03:1,2010-01-10T20:00:00Z,29.4412,-92.0613,1034.44,11111222 
WAVCIS,ioos:station:WAVCIS:CSI03:1,2010-01-10T21:00:00Z,29.4412,-92.0613,1033.87,11111222 
WAVCIS,ioos:station:WAVCIS:CSI03:1,2010-01-10T22:00:00Z,29.4412,-92.0613,1033.79,11111222 
WAVCIS,ioos:station:WAVCIS:CSI03:1,2010-01-10T23:00:00Z,29.4412,-92.0613,1034.0,11111222 
WAVCIS,ioos:station:WAVCIS:CSI03:1,2010-01-11T00:00:00Z,29.4412,-92.0613,1034.19,11111222 
WAVCIS,ioos:station:WAVCIS:CSI03:1,2010-01-11T01:00:00Z,29.4412,-92.0613,1034.04,11111222 
WAVCIS,ioos:station:WAVCIS:CSI03:1,2010-01-11T02:00:00Z,29.4412,-92.0613,1033.96,11111222 
WAVCIS,ioos:station:WAVCIS:CSI03:1,2010-01-11T03:00:00Z,29.4412,-92.0613,1033.6,11111222 
WAVCIS,ioos:station:WAVCIS:CSI03:1,2010-01-11T04:00:00Z,29.4412,-92.0613,1033.57,11111222 
WAVCIS,ioos:station:WAVCIS:CSI03:1,2010-01-11T05:00:00Z,29.4412,-92.0613,1033.37,11111222 
WAVCIS,ioos:station:WAVCIS:CSI03:1,2010-01-11T06:00:00Z,29.4412,-92.0613,1033.07,11111222 
WAVCIS,ioos:station:WAVCIS:CSI03:1,2010-01-11T07:00:00Z,29.4412,-92.0613,1032.78,11111222 
WAVCIS,ioos:station:WAVCIS:CSI03:1,2010-01-11T08:00:00Z,29.4412,-92.0613,1032.6,11111222 
WAVCIS,ioos:station:WAVCIS:CSI03:1,2010-01-11T09:00:00Z,29.4412,-92.0613,1032.46,11111222 
WAVCIS,ioos:station:WAVCIS:CSI03:1,2010-01-11T10:00:00Z,29.4412,-92.0613,1032.61,11111222 
WAVCIS,ioos:station:WAVCIS:CSI03:1,2010-01-11T11:00:00Z,29.4412,-92.0613,1032.33,11111222 
WAVCIS,ioos:station:WAVCIS:CSI03:1,2010-01-11T12:00:00Z,29.4412,-92.0613,1032.46,11111222 
WAVCIS,ioos:station:WAVCIS:CSI03:1,2010-01-11T13:00:00Z,29.4412,-92.0613,1032.12,11111222 
WAVCIS,ioos:station:WAVCIS:CSI03:1,2010-01-11T14:00:00Z,29.4412,-92.0613,1032.44,11111222 
WAVCIS,ioos:station:WAVCIS:CSI03:1,2010-01-11T15:00:00Z,29.4412,-92.0613,1033.29,11111222 
WAVCIS,ioos:station:WAVCIS:CSI03:1,2010-01-11T16:00:00Z,29.4412,-92.0613,1033.39,11111222 
WAVCIS,ioos:station:WAVCIS:CSI03:1,2010-01-11T17:00:00Z,29.4412,-92.0613,1032.87,11111222 
WAVCIS,ioos:station:WAVCIS:CSI03:1,2010-01-11T18:00:00Z,29.4412,-92.0613,1031.7,11111222 
WAVCIS,ioos:station:WAVCIS:CSI03:1,2010-01-11T19:00:00Z,29.4412,-92.0613,1030.28,11111222 
WAVCIS,ioos:station:WAVCIS:CSI03:1,2010-01-11T20:00:00Z,29.4412,-92.0613,1029.32,11111222 
WAVCIS,ioos:station:WAVCIS:CSI03:1,2010-01-11T21:00:00Z,29.4412,-92.0613,1029.1,11111222 
WAVCIS,ioos:station:WAVCIS:CSI03:1,2010-01-11T22:00:00Z,29.4412,-92.0613,1028.62,11111222 
WAVCIS,ioos:station:WAVCIS:CSI03:1,2010-01-11T23:00:00Z,29.4412,-92.0613,1028.21,11111222 
WAVCIS,ioos:station:WAVCIS:CSI03:1,2010-01-12T00:00:00Z,29.4412,-92.0613,1028.63,11111222 
WAVCIS,ioos:station:WAVCIS:CSI03:1,2010-01-12T01:00:00Z,29.4412,-92.0613,1028.37,11111222 
WAVCIS,ioos:station:WAVCIS:CSI03:1,2010-01-12T02:00:00Z,29.4412,-92.0613,1028.56,11111222 
WAVCIS,ioos:station:WAVCIS:CSI03:1,2010-01-12T03:00:00Z,29.4412,-92.0613,1028.34,11111222 
WAVCIS,ioos:station:WAVCIS:CSI03:1,2010-01-12T04:00:00Z,29.4412,-92.0613,1028.45,11111222 
WAVCIS,ioos:station:WAVCIS:CSI03:1,2010-01-12T05:00:00Z,29.4412,-92.0613,1028.61,11111222 
WAVCIS,ioos:station:WAVCIS:CSI03:1,2010-01-12T06:00:00Z,29.4412,-92.0613,1028.23,11111222 